Regional Weather Roundup
Issued by NWS

Home | Current Version | Previous Version | Text Only | Print | Product List | Glossary Off
Versions: 1 2 3 4 5 6 7 8 9 10 11 12 13 14 15 16 17 18 19 20 21 22 23 24 25 26 27 28 29 30 31 32 33 34 35 36 37 38 39 40 41 42 43 44 45 46 47 48 49 50

000
ASUS43 KDTX 262310
RWRMI
MICHIGAN HOURLY REGIONAL WEATHER ROUNDUP
NATIONAL WEATHER SERVICE DETROIT/PONTIAC MI
700 PM EDT TUE MAY 26 2015

NOTE: "FAIR" INDICATES FEW OR NO CLOUDS BELOW 12,000 FEET WITH NO
SIGNIFICANT WEATHER AND/OR OBSTRUCTION TO VISIBILITY.

MIZ047>049-052>055-059>063-066>070-074>076-081>083-270000-
SOUTHEAST LOWER MICHIGAN

CITY           SKY/WX    TMP DP  RH WIND       PRES   REMARKS
ADRIAN         LGT RAIN  71  68  90 SW16G24   29.91R
ALMA           CLOUDY    71  68  89 S9G18     29.82F
ANN ARBOR      CLOUDY    72  68  87 SW9       29.89S
BAD AXE        PTSUNNY   78  63  61 S14       29.84F
CARO           DRIZZLE   78  65  64 SE12G17   29.81F
DETROIT CITY   CLOUDY    81  62  52 S16G24    29.85F
DETROIT        TSTM      72  68  88 SW26G36   29.92R VSB 1
FLINT          LGT RAIN  74  68  81 S13       29.86R
GROSSE ILE     CLOUDY    75  63  64 S35G46    29.87R
HILLSDALE      CLOUDY    71  70  98 S9G16     29.89F
HOWELL         CLOUDY    71  68  89 S9        29.87F

CITY           SKY/WX    TMP DP  RH WIND       PRES   REMARKS
JACKSON        CLOUDY    72  67  84 S13       29.87F
LAMBERTVILLE   RAIN      72  66  83 S8G22     29.94R
LANSING        LGT RAIN  70  68  93 S8        29.85F FOG
LAPEER         RAIN      75  65  70 S6        29.87R
MASON          CLOUDY    71  65  82 S9        29.86F
MONROE         RAIN      72  68  88 SW21G37   29.91R
MT. CLEMENS    PTSUNNY   76  64  65 SE15      29.85F
PONTIAC        HVY RAIN  70  67  90 SW8G21    29.88R FOG
PORT HOPE        N/A    N/A N/A N/A SE12G26   29.82F
PORT HURON     MOSUNNY   79  63  57 SE15G21   29.88F
TRI CITIES     HVY RAIN  71  67  87 SW16G36   29.83R FOG
MIDLAND        HVY RAIN  70  68  93 S8        29.82R
TROY           CLOUDY    82  62  50 SE7       29.87F
SAGINAW HB     RAIN      73  68  83 SW25G32   29.81R
$$
MIZ043>046-050>051-056>058-064>065-071>073-077>080-270000-
SOUTHWEST LOWER MICHIGAN

CITY           SKY/WX    TMP DP  RH WIND       PRES   REMARKS
BATTLE CREEK   CLOUDY    68  60  75 SW12G20   29.85S
BENTON HARBOR  PTSUNNY   73  65  75 S9        29.79F
BIG RAPIDS     CLOUDY    69  66  88 S10G22    29.78F
COLDWATER      LGT RAIN  67  60  77 SW13G18   29.88R
FREMONT        FAIR      70  63  80 S13G23    29.77F
HOLLAND        CLOUDY    71  64  78 SW15G25   29.80F
GRAND RAPIDS   PTSUNNY   70  66  87 S13       29.80F
IONIA          RAIN      72  68  89 S23       29.82S
KALAMAZOO      CLOUDY    69  62  78 S13       29.83F
LUDINGTON      CLOUDY    71  66  83 S10       29.74F
MARSHALL       RAIN      69  61  74 SW15G24   29.86S
MOUNT PLEASANT CLOUDY    73  69  87 S13       29.79F
MUSKEGON       PTSUNNY   69  61  75 S21G29    29.78S
SOUTH HAVEN    PTSUNNY   73  65  75 S9        29.79F
$$
MIZ016>042-270000-
NORTHERN LOWER MICHIGAN

CITY           SKY/WX    TMP DP  RH WIND       PRES   REMARKS
ALPENA         CLOUDY    77  62  59 SE8       29.82R
BEAVER ISLAND  LGT RAIN  54  53  96 E5        29.80R
BELLAIRE       HVY RAIN  68  66  92 CALM      29.78S
CADILLAC       CLOUDY    67  65  92 E8        29.78F
CHARLEVOIX     HVY RAIN  63  63  99 CALM      29.81F
FRANKFORT      CLOUDY    71  64  80 E6        29.72F
GAYLORD        RAIN      68  66  93 SE7       29.80F FOG
GRAYLING       RAIN      68  66  94 E5        29.80F
HARBOR SPRINGS RAIN      66  64  91 CALM      29.78S
HOUGHTON LAKE  HVY RAIN  68  66  93 VRB3G17   29.81R VSB 1/2
MANISTEE       CLOUDY    70  66  88 SW9       29.74F
OSCODA         LGT RAIN  66  62  85 E7        29.81F
PELLSTON       LGT RAIN  67  62  84 N5        29.79F
ROGERS CITY    CLOUDY    78  62  58 SE8       29.80R
TRAVERSE CITY  LGT RAIN  69  67  93 E5        29.73F FOG
$$
MIZ007>008-015-270000-
EASTERN UPPER MICHIGAN

CITY           SKY/WX    TMP DP  RH WIND       PRES   REMARKS
KINROSS        CLOUDY    70  64  83 NW5       29.80S
MACKINAC ISLAN LGT RAIN  67  63  87 NE5       29.79F
NEWBERRY       LGT RAIN  65  63  94 N5        29.78F
S. S. MARIE    LGT RAIN  70  64  81 E5        29.79S
MUNISING         N/A     48  46  93 CALM      29.77F
$$
MIZ004>006-011>014-085-270000-
CENTRAL UPPER MICHIGAN

CITY           SKY/WX    TMP DP  RH WIND       PRES   REMARKS
MANISTIQUE     LGT RAIN  66  64  90 N6        29.75F
ESCANABA       CLOUDY    61  57  88 NE6       29.73F
MENOMINEE      CLOUDY    61  57  88 E8        29.68F
SAWYER-GWINN   LGT RAIN  54  54 100 NE12      29.77F
$$
MIZ001>003-009>011-084-270000-
WESTERN UPPER MICHIGAN

CITY           SKY/WX    TMP DP  RH WIND       PRES   REMARKS
IRON MOUNTAIN  LGT RAIN  64  61  90 E5        29.71F
HOUGHTON       CLOUDY    55  52  89 SE9       29.78F
COPPER HARBOR    N/A     46  43  89 NE3       29.79F
IRONWOOD       CLOUDY    54  52  94 NE3       29.73F
$$

ABBREVIATIONS USED IN REMARKS
   TC - TEMPERATURE IN CELSIUS
  WCI - WIND CHILL INDEX
   HX - HEAT INDEX
  VSB - VISIBILITY



USA.gov is the U.S. government's official web portal to all federal, state and local government web resources and services.